H1 CPF 2 NER 2022 2 17 9 048 01 glonass140 H2 1903001 9140 44299 2022 2 17 0 0 0 2022 2 20 23 45 0 900 1 1 0 0 0 1 H9 10 0 59627 0.00000 0 6627800.494 15722909.728 -18932237.451 10 0 59627 900.00000 0 6427774.680 17932802.077 -16931495.379 10 0 59627 1800.00000 0 6403623.577 19884940.116 -14601066.533 10 0 59627 2700.00000 0 6518525.225 21528969.214 -11986332.475 10 0 59627 3600.00000 0 6727594.265 22824608.347 -9138220.691 10 0 59627 4500.00000 0 6979989.993 23743187.505 -6112204.707 10 0 59627 5400.00000 0 7221285.933 24268711.633 -2967214.273 10 0 59627 6300.00000 0 7395999.145 24398406.886 235522.244 10 0 59627 7200.00000 0 7450170.767 24142726.997 3433679.553 10 0 59627 8100.00000 0 7333887.182 23524820.661 6565056.743 10 0 59627 9000.00000 0 7003633.927 22579483.665 9568793.430 10 0 59627 9900.00000 0 6424381.924 21351641.375 12386556.179 10 0 59627 10800.00000 0 5571317.220 19894426.865 14963671.683 10 0 59627 11700.00000 0 4431140.926 18266936.740 17250184.614 10 0 59627 12600.00000 0 3002884.427 16531759.899 19201819.782 10 0 59627 13500.00000 0 1298205.591 14752383.414 20780830.730 10 0 59627 14400.00000 0 -658846.528 12990584.222 21956719.312 10 0 59627 15300.00000 0 -2832588.695 11303915.331 22706813.522 10 0 59627 16200.00000 0 -5176950.888 9743390.622 23016693.729 10 0 59627 17100.00000 0 -7637162.676 8351463.574 22880460.369 10 0 59627 18000.00000 0 -10151809.078 7160382.707 22300838.963 10 0 59627 18900.00000 0 -12655171.560 6190990.625 21289121.240 10 0 59627 19800.00000 0 -15079758.198 5452015.090 19864943.933 10 0 59627 20700.00000 0 -17358919.245 4939880.263 18055909.550 10 0 59627 21600.00000 0 -19429440.945 4639044.777 15897056.147 10 0 59627 22500.00000 0 -21234011.148 4522851.594 13430185.656 10 0 59627 23400.00000 0 -22723455.264 4554853.554 10703062.962 10 0 59627 24300.00000 0 -23858650.396 4690558.774 7768500.222 10 0 59627 25200.00000 0 -24612038.449 4879522.537 4683343.130 10 0 59627 26100.00000 0 -24968675.235 5067697.829 1507377.941 10 0 59627 27000.00000 0 -24926771.721 5199945.598 -1697820.335 10 0 59627 27900.00000 0 -24497704.408 5222598.875 -4870076.788 10 0 59627 28800.00000 0 -23705493.894 5085972.358 -7947819.673 10 0 59627 29700.00000 0 -22585772.824 4746710.977 -10871274.451 10 0 59627 30600.00000 0 -21184285.829 4169877.410 -13583625.586 10 0 59627 31500.00000 0 -19554983.721 3330689.271 -16032123.202 10 0 59627 32400.00000 0 -17757791.331 2215831.107 -18169112.850 10 0 59627 33300.00000 0 -15856142.123 824284.107 -19952968.033 10 0 59627 34200.00000 0 -13914382.690 -832363.440 -21348906.895 10 0 59627 35100.00000 0 -11995155.699 -2730140.112 -22329676.839 10 0 59627 36000.00000 0 -10156870.872 -4833442.507 -22876093.313 10 0 59627 36900.00000 0 -8451369.982 -7096284.049 -22977421.778 10 0 59627 37800.00000 0 -6921883.727 -9463990.925 -22631594.960 10 0 59627 38700.00000 0 -5601366.060 -11875275.687 -21845260.567 10 0 59627 39600.00000 0 -4511275.832 -14264602.784 -20633657.994 10 0 59627 40500.00000 0 -3660856.614 -16564747.820 -19020325.897 10 0 59627 41400.00000 0 -3046944.564 -18709443.839 -17036645.816 10 0 59627 42300.00000 0 -2654311.849 -20636003.803 -14721230.468 10 0 59627 43200.00000 0 -2456530.269 -22287809.270 -12119168.495 10 0 59627 44100.00000 0 -2417317.567 -23616560.626 -9281140.490 10 0 59627 45000.00000 0 -2492308.289 -24584194.094 -6262423.991 10 0 59627 45900.00000 0 -2631172.798 -25164384.889 -3121807.518 10 0 59627 46800.00000 0 -2779993.213 -25343573.406 79564.313 10 0 59627 47700.00000 0 -2883794.078 -25121471.650 3279390.937 10 0 59627 48600.00000 0 -2889119.077 -24511029.330 6415436.799 10 0 59627 49500.00000 0 -2746543.338 -23537862.039 9426748.353 10 0 59627 50400.00000 0 -2413013.967 -22239166.789 12254842.503 10 0 59627 51300.00000 0 -1853919.053 -20662171.760 14844842.899 10 0 59627 52200.00000 0 -1044797.272 -18862186.608 17146541.917 10 0 59627 53100.00000 0 27384.163 -16900336.118 19115367.894 10 0 59627 54000.00000 0 1363437.054 -14841072.819 20713239.591 10 0 59627 54900.00000 0 2951678.546 -12749572.774 21909292.347 10 0 59627 55800.00000 0 4768187.640 -10689123.126 22680463.024 10 0 59627 56700.00000 0 6777581.332 -8718609.557 23011923.805 10 0 59627 57600.00000 0 8934278.329 -6890207.183 22897357.699 10 0 59627 58500.00000 0 11184198.203 -5247369.535 22339071.519 10 0 59627 59400.00000 0 13466826.143 -3823197.589 21347944.970 10 0 59627 60300.00000 0 15717558.511 -2639254.931 19943217.239 10 0 59627 61200.00000 0 17870232.848 -1704876.721 18152115.308 10 0 59627 62100.00000 0 19859738.463 -1016999.746 16009330.836 10 0 59627 63000.00000 0 21624600.278 -560519.354 13556355.072 10 0 59627 63900.00000 0 23109429.396 -309157.527 10840683.870 10 0 59627 64800.00000 0 24267139.188 -226805.070 7914907.177 10 0 59627 65700.00000 0 25060834.990 -269281.326 4835699.618 10 0 59627 66600.00000 0 25465298.650 -386437.364 1662730.897 10 0 59627 67500.00000 0 25468005.762 -524514.100 -1542483.648 10 0 59627 68400.00000 0 25069632.551 -628655.957 -4717770.595 10 0 59627 69300.00000 0 24284030.477 -645473.871 -7801501.323 10 0 59627 70200.00000 0 23137668.796 -525549.113 -10733786.991 10 0 59627 71100.00000 0 21668567.467 -225771.553 -13457642.400 10 0 59627 72000.00000 0 19924764.222 288587.293 -15920095.814 10 0 59627 72900.00000 0 17962379.180 1042155.196 -18073222.948 10 0 59627 73800.00000 0 15843357.293 2048168.219 -19875084.660 10 0 59627 74700.00000 0 13632982.615 3307663.957 -21290549.676 10 0 59627 75600.00000 0 11397267.973 4809194.958 -22291985.985 10 0 59627 76500.00000 0 9200328.924 6529076.412 -22859807.001 10 0 59627 77400.00000 0 7101851.720 8432159.658 -22982861.374 10 0 59627 78300.00000 0 5154761.020 10473100.879 -22658658.389 10 0 59627 79200.00000 0 3403184.813 12598073.415 -21893423.980 10 0 59627 80100.00000 0 1880801.618 14746853.084 -20701985.746 10 0 59627 81000.00000 0 609638.904 16855190.052 -19107488.639 10 0 59627 81900.00000 0 -400627.323 18857368.333 -17140946.391 10 0 59627 82800.00000 0 -1152842.963 20688845.647 -14840637.100 10 0 59627 83700.00000 0 -1662010.042 22288862.764 -12251354.633 10 0 59627 84600.00000 0 -1954401.258 23602912.387 -9423530.490 10 0 59627 85500.00000 0 -2066193.558 24584963.339 -6412243.747 10 0 59628 0.00000 0 -2041680.060 25199346.105 -3276139.264 10 0 59628 900.00000 0 -1931137.594 25422220.390 -76274.457 10 0 59628 1800.00000 0 -1788441.896 25242562.179 3125077.530 10 0 59628 2700.00000 0 -1668533.050 24662630.146 6265649.501 10 0 59628 3600.00000 0 -1624840.024 23697891.477 9284397.695 10 0 59628 4500.00000 0 -1706774.555 22376411.494 12122692.185 10 0 59628 5400.00000 0 -1957401.317 20737733.694 14725456.237 10 0 59628 6300.00000 0 -2411383.435 18831298.225 17042232.392 10 0 59628 7200.00000 0 -3093290.277 16714466.094 19028154.738 10 0 59628 8100.00000 0 -4016338.850 14450232.465 20644809.233 10 0 59628 9000.00000 0 -5181621.626 12104724.903 21860966.396 10 0 59628 9900.00000 0 -6577852.998 9744590.868 22653173.352 10 0 59628 10800.00000 0 -8181644.926 7434382.674 23006195.133 10 0 59628 11700.00000 0 -9958300.352 5234047.670 22913297.967 10 0 59628 12600.00000 0 -11863091.530 3196626.628 22376370.167 10 0 59628 13500.00000 0 -13842970.603 1366254.264 21405879.132 10 0 59628 14400.00000 0 -15838641.977 -223456.860 20020665.721 10 0 59628 15300.00000 0 -17786911.233 -1550583.647 18247580.085 10 0 59628 16200.00000 0 -19623213.880 -2605564.150 16120965.686 10 0 59628 17100.00000 0 -21284219.841 -3391347.153 13682000.839 10 0 59628 18000.00000 0 -22710406.078 -3923014.554 10977909.725 10 0 59628 18900.00000 0 -23848490.911 -4226893.241 8061057.138 10 0 59628 19800.00000 0 -24653628.953 -4339194.245 4987943.476 10 0 59628 20700.00000 0 -25091275.038 -4304236.555 1818118.608 10 0 59628 21600.00000 0 -25138639.043 -4172330.460 -1386965.126 10 0 59628 22500.00000 0 -24785670.147 -3997409.577 -4565139.118 10 0 59628 23400.00000 0 -24035528.460 -3834511.497 -7654721.128 10 0 59628 24300.00000 0 -22904523.220 -3737213.582 -10595711.165 10 0 59628 25200.00000 0 -21421518.983 -3755132.587 -13330957.358 10 0 59628 26100.00000 0 -19626833.450 -3931594.356 -15807268.875 10 0 59628 27000.00000 0 -17570671.962 -4301572.936 -17976454.028 10 0 59628 27900.00000 0 -15311163.077 -4889987.329 -19796263.045 10 0 59628 28800.00000 0 -12912076.567 -5710429.176 -21231216.740 10 0 59628 29700.00000 0 -10440318.490 -6764376.660 -22253304.593 10 0 59628 30600.00000 0 -7963307.414 -8040929.547 -22842538.268 10 0 59628 31500.00000 0 -5546341.049 -9517078.293 -22987349.248 10 0 59628 32400.00000 0 -3250062.971 -11158497.651 -22684822.421 10 0 59628 33300.00000 0 -1128134.973 -12920833.057 -21940760.477 10 0 59628 34200.00000 0 774787.797 -14751427.000 -20769577.281 10 0 59628 35100.00000 0 2424694.552 -16591413.897 -19194021.803 10 0 59628 36000.00000 0 3799401.298 -18378096.109 -17244737.409 10 0 59628 36900.00000 0 4889228.932 -20047501.449 -14959664.843 10 0 59628 37800.00000 0 5697149.404 -21537014.586 -12383300.344 10 0 59628 38700.00000 0 6238394.906 -22787971.312 -9565823.444 10 0 59628 39600.00000 0 6539547.850 -23748105.873 -6562111.890 10 0 59628 40500.00000 0 6637151.630 -24373747.746 -3430663.532 10 0 59628 41400.00000 0 6575902.630 -24631674.791 -232447.054 10 0 59628 42300.00000 0 6406501.690 -24500544.320 2970294.898 10 0 59628 43200.00000 0 6183257.810 -23971841.735 6115265.820 10 0 59628 44100.00000 0 5961547.152 -23050306.979 9141333.880 10 0 59628 45000.00000 0 5795236.292 -21753821.333 11989724.239 10 0 59628 45900.00000 0 5734179.831 -20112760.046 14605161.474 10 0 59628 46800.00000 0 5821898.834 -18168838.758 16936939.717 10 0 59628 47700.00000 0 6093538.460 -15973502.867 18939899.950 10 0 59628 48600.00000 0 6574190.867 -13585927.890 20575296.156 10 0 59628 49500.00000 0 7277653.798 -11070714.609 21811534.538 10 0 59628 50400.00000 0 8205676.627 -8495375.150 22624772.663 10 0 59628 51300.00000 0 9347725.144 -5927714.145 22999368.272 10 0 59628 52200.00000 0 10681274.742 -3433212.894 22928170.381 10 0 59628 53100.00000 0 12172619.678 -1072523.981 22412648.117 10 0 59628 54000.00000 0 13778164.885 1100821.333 21462855.671 10 0 59628 54900.00000 0 15446146.974 3042399.588 20097234.492 10 0 59628 55800.00000 0 17118713.349 4718494.775 18342256.667 10 0 59628 56700.00000 0 18734273.705 6107246.566 16231916.091 10 0 59628 57600.00000 0 20230026.801 7199300.921 13807076.644 10 0 59628 58500.00000 0 21544558.001 7997937.353 11114689.185 10 0 59628 59400.00000 0 22620399.885 8518668.579 8206891.547 10 0 59628 60300.00000 0 23406449.470 8788330.119 5140007.929 10 0 59628 61200.00000 0 23860141.049 8843698.410 1973466.223 10 0 59628 62100.00000 0 23949283.570 8729695.765 -1231346.511 10 0 59628 63000.00000 0 23653484.973 8497257.795 -4412268.853 10 0 59628 63900.00000 0 22965102.945 8200953.142 -7507567.349 10 0 59628 64800.00000 0 21889681.030 7896456.057 -10457133.212 10 0 59628 65700.00000 0 20445850.467 7637978.673 -13203650.136 10 0 59628 66600.00000 0 18664700.402 7475771.784 -15693710.255 10 0 59628 67500.00000 0 16588641.389 7453800.305 -17878856.341 10 0 59628 68400.00000 0 14269808.307 7607692.403 -19716529.643 10 0 59628 69300.00000 0 11768068.270 7963049.956 -21170904.499 10 0 59628 70200.00000 0 9148715.705 8534192.894 -22213593.121 10 0 59628 71100.00000 0 6479949.912 9323391.810 -22824206.440 10 0 59628 72000.00000 0 3830239.812 10320622.692 -22990759.551 10 0 59628 72900.00000 0 1265685.316 11503855.611 -22709913.444 10 0 59628 73800.00000 0 -1152515.003 12839866.667 -21987047.710 10 0 59628 74700.00000 0 -3370384.381 14285540.229 -20836162.267 10 0 59628 75600.00000 0 -5343179.941 15789607.666 -19279609.462 10 0 59628 76500.00000 0 -7037012.564 17294750.070 -17347661.263 10 0 59628 77400.00000 0 -8430007.180 18739976.687 -15077919.627 10 0 59628 78300.00000 0 -9512955.574 20063178.886 -12514581.393 10 0 59628 79200.00000 0 -10289435.229 21203751.663 -9707572.048 10 0 59628 80100.00000 0 -10775390.395 22105171.547 -6711565.698 10 0 59628 81000.00000 0 -10998194.543 22717421.479 -3584910.971 10 0 59628 81900.00000 0 -10995235.470 22999159.627 -388484.634 10 0 59628 82800.00000 0 -10812084.628 22919540.008 2815503.589 10 0 59628 83700.00000 0 -10500329.970 22459607.694 5964730.618 10 0 59628 84600.00000 0 -10115165.757 21613209.658 8997979.275 10 0 59628 85500.00000 0 -9712842.847 20387382.991 11856332.489 10 0 59629 0.00000 0 -9348088.570 18802204.714 14484318.491 10 0 59629 900.00000 0 -9071605.918 16890109.065 16830985.932 10 0 59629 1800.00000 0 -8927758.532 14694703.723 18850884.717 10 0 59629 2700.00000 0 -8952538.491 12269132.152 20504938.923 10 0 59629 3600.00000 0 -9171902.701 9674052.788 21761192.265 10 0 59629 4500.00000 0 -9600547.066 6975318.591 22595414.276 10 0 59629 5400.00000 0 -10241169.375 4241453.221 22991556.602 10 0 59629 6300.00000 0 -11084251.195 1541027.908 22942051.850 10 0 59629 7200.00000 0 -12108367.522 -1059953.194 22447950.333 10 0 59629 8100.00000 0 -13281011.036 -3500552.251 21518892.934 10 0 59629 9000.00000 0 -14559896.696 -5727179.688 20172921.099 10 0 59629 9900.00000 0 -15894692.514 -7695565.890 18436127.749 10 0 59629 10800.00000 0 -17229104.914 -9372342.699 16342155.627 10 0 59629 11700.00000 0 -18503232.329 -10736170.657 13931552.133 10 0 59629 12600.00000 0 -19656089.470 -11778366.455 11250992.369 10 0 59629 13500.00000 0 -20628197.465 -12503005.698 8352384.443 10 0 59629 14400.00000 0 -21364131.984 -12926497.511 5291873.341 10 0 59629 15300.00000 0 -21814922.873 -13076649.375 2128761.795 10 0 59629 16200.00000 0 -21940204.590 -12991261.743 -1075631.711 10 0 59629 17100.00000 0 -21710026.768 -12716311.644 -4259156.282 10 0 59629 18000.00000 0 -21106248.060 -12303801.704 -7360030.592 10 0 59629 18900.00000 0 -20123453.581 -11809365.220 -10318040.349 10 0 59629 19800.00000 0 -18769355.979 -11289728.364 -13075707.994 10 0 59629 20700.00000 0 -17064661.685 -10800136.741 -15579411.624 10 0 59629 21600.00000 0 -15042406.245 -10391855.287 -17780431.186 10 0 59629 22500.00000 0 -12746784.804 -10109847.537 -19635901.282 10 0 59629 23400.00000 0 -10231525.165 -9990732.947 -21109651.607 10 0 59629 24300.00000 0 -7557869.904 -10061109.334 -22172918.364 10 0 59629 25200.00000 0 -4792250.605 -10336312.265 -22804912.353 10 0 59629 26100.00000 0 -2003750.296 -10819664.809 -22993232.236 10 0 59629 27000.00000 0 738540.827 -11502250.505 -22734114.417 10 0 59629 27900.00000 0 3368166.738 -12363220.254 -22032514.138 10 0 59629 28800.00000 0 5823834.083 -13370621.232 -20902015.612 10 0 59629 29700.00000 0 8051722.686 -14482713.760 -19364572.408 10 0 59629 30600.00000 0 10007481.837 -15649721.213 -17450082.587 10 0 59629 31500.00000 0 11657829.149 -16815939.429 -15195806.546 10 0 59629 32400.00000 0 12981685.576 -17922116.593 -12645638.721 10 0 59629 33300.00000 0 13970799.720 -18908002.788 -9849247.385 10 0 59629 34200.00000 0 14629836.130 -19714960.904 -6861099.723 10 0 59629 35100.00000 0 14975925.213 -20288527.821 -3739391.801 10 0 59629 36000.00000 0 15037695.271 -20580816.783 -544905.150 10 0 59629 36900.00000 0 14853829.216 -20552658.632 2660186.642 10 0 59629 37800.00000 0 14471208.831 -20175390.785 5813536.943 10 0 59629 38700.00000 0 13942726.787 -19432217.968 8853845.978 10 0 59629 39600.00000 0 13324860.627 -18319087.156 11722056.855 10 0 59629 40500.00000 0 12675112.601 -16845039.910 14362503.935 10 0 59629 41400.00000 0 12049424.546 -15032027.511 16723991.025 10 0 59629 42300.00000 0 11499677.468 -12914197.064 18760778.593 10 0 59629 43200.00000 0 11071381.350 -10536678.753 20433461.501 10 0 59629 44100.00000 0 10801652.164 -7953925.141 21709721.207 10 0 59629 45000.00000 0 10717560.511 -5227671.791 22564939.026 10 0 59629 45900.00000 0 10834920.409 -2424603.737 22982659.912 10 0 59629 46800.00000 0 11157568.109 386175.959 22954899.117 10 0 59629 47700.00000 0 11677160.377 3135771.469 22482286.880 10 0 59629 48600.00000 0 12373500.017 5758105.831 21574049.260 10 0 59629 49500.00000 0 13215374.723 8192412.318 20247825.977 10 0 59629 50400.00000 0 14161874.113 10385503.912 18529328.923 10 0 59629 51300.00000 0 15164130.140 12293728.536 16451847.701 10 0 59629 52200.00000 0 16167408.572 13884530.527 14055611.155 10 0 59629 53100.00000 0 17113464.609 15137554.817 11387016.483 10 0 59629 54000.00000 0 17943064.640 16045249.067 8497739.859 10 0 59629 54900.00000 0 18598568.963 16612939.581 5443744.787 10 0 59629 55800.00000 0 19026467.438 16858378.358 2284206.541 10 0 59629 56700.00000 0 19179761.646 16810780.664 -919627.287 10 0 59629 57600.00000 0 19020093.125 16509393.654 -4105618.607 10 0 59629 58500.00000 0 18519527.526 16001656.135 -7211940.405 10 0 59629 59400.00000 0 17661918.590 15341026.899 -10178274.923 10 0 59629 60300.00000 0 16443793.173 14584572.966 -12946985.193 10 0 59629 61200.00000 0 14874718.485 13790419.421 -15464236.906 10 0 59629 62100.00000 0 12977134.239 13015168.446 -17681048.587 10 0 59629 63000.00000 0 10785654.808 12311396.666 -19554249.371 10 0 59629 63900.00000 0 8345868.735 11725336.731 -21047325.306 10 0 59629 64800.00000 0 5712684.044 11294841.453 -22131137.386 10 0 59629 65700.00000 0 2948286.851 11047717.017 -22784496.923 10 0 59629 66600.00000 0 119797.258 11000496.270 -22994586.575 10 0 59629 67500.00000 0 -2703280.788 11157704.656 -22757218.349 10 0 59629 68400.00000 0 -5451710.130 11511650.532 -22076923.025 10 0 59629 69300.00000 0 -8059161.461 12042749.458 -20966868.651 10 0 59629 70200.00000 0 -10464735.026 12720369.408 -19448609.166 10 0 59629 71100.00000 0 -12615257.975 13504161.647 -17551667.498 10 0 59629 72000.00000 0 -14467261.485 14345821.270 -15312960.905 10 0 59629 72900.00000 0 -15988555.269 15191202.894 -12776079.555 10 0 59629 73800.00000 0 -17159333.973 15982701.726 -9990432.417 10 0 59629 74700.00000 0 -17972769.643 16661798.601 -7010277.508 10 0 59629 75600.00000 0 -18435066.416 17171660.489 -3893655.999 10 0 59629 76500.00000 0 -18564976.390 17459685.458 -701251.793 10 0 59629 77400.00000 0 -18392798.621 17479883.426 2504800.062 10 0 59629 78300.00000 0 -17958905.228 17194991.121 5662131.819 10 0 59629 79200.00000 0 -17311858.622 16578231.151 8709363.538 10 0 59629 80100.00000 0 -16506201.098 15614640.429 11587300.923 10 0 59629 81000.00000 0 -15600011.641 14301911.753 14240086.614 10 0 59629 81900.00000 0 -14652334.237 12650713.058 16616282.340 10 0 59629 82800.00000 0 -13720586.870 10684471.098 18669861.040 10 0 59629 83700.00000 0 -12858060.618 8438628.822 20361090.322 10 0 59629 84600.00000 0 -12111613.832 5959407.555 21657291.111 10 0 59629 85500.00000 0 -11519657.669 3302125.668 22533457.915 10 0 59630 0.00000 0 -11110516.573 529143.671 22972730.052 10 0 59630 900.00000 0 -10901231.126 -2292481.006 22966706.183 10 0 59630 1800.00000 0 -10896852.744 -5093529.301 22515596.692 10 0 59630 2700.00000 0 -11090257.961 -7805246.987 21628212.669 10 0 59630 3600.00000 0 -11462489.818 -10361951.222 20321791.525 10 0 59630 4500.00000 0 -11983611.309 -12703512.179 18621663.096 10 0 59630 5400.00000 0 -12614035.015 -14777608.291 16560762.415 10 0 59630 6300.00000 0 -13306273.353 -16541663.110 14178997.967 10 0 59630 7200.00000 0 -14007036.452 -17964384.648 11522486.901 10 0 59630 8100.00000 0 -14659590.158 -19026844.330 8642671.048 10 0 59630 9000.00000 0 -15206275.664 -19723051.507 5595329.805 10 0 59630 9900.00000 0 -15591085.281 -20060000.035 2439508.194 10 0 59630 10800.00000 0 -15762186.198 -20057185.361 -763619.979 10 0 59630 11700.00000 0 -15674285.849 -19745612.419 -3951932.411 10 0 59630 12600.00000 0 -15290738.800 -19166335.878 -7063559.437 10 0 59630 13500.00000 0 -14585305.538 -18368593.931 -10038082.902 10 0 59630 14400.00000 0 -13543487.803 -17407613.910 -12817709.477 10 0 59630 15300.00000 0 -12163382.705 -16342181.916 -15348395.396 10 0 59630 16200.00000 0 -10456017.830 -15232078.728 -17580900.544 10 0 59630 17100.00000 0 -8445151.207 -14135489.969 -19471751.095 10 0 59630 18000.00000 0 -6166542.496 -13106499.763 -20984091.568 10 0 59630 18900.00000 0 -3666723.866 -12192773.706 -22088409.391 10 0 59630 19800.00000 0 -1001320.041 -11433529.046 -22763117.479 10 0 59630 20700.00000 0 1767013.836 -10857878.038 -22994982.992 10 0 59630 21600.00000 0 4570951.892 -10483614.688 -22779393.476 10 0 59630 22500.00000 0 7341057.365 -10316496.493 -22120454.639 10 0 59630 23400.00000 0 10008436.488 -10350051.868 -21030917.257 10 0 59630 24300.00000 0 12507376.216 -10565921.727 -19531934.092 10 0 59630 25200.00000 0 14777855.941 -10934720.957 -17652650.979 10 0 59630 26100.00000 0 16767828.301 -11417383.404 -15429639.689 10 0 59630 27000.00000 0 18435173.841 -11966933.249 -12906183.401 10 0 59630 27900.00000 0 19749247.843 -12530607.345 -10131428.716 10 0 59630 28800.00000 0 20691954.764 -13052237.931 -7159421.113 10 0 59630 29700.00000 0 21258305.828 -13474793.876 -4048043.254 10 0 59630 30600.00000 0 21456437.294 -13742971.735 -857877.661 10 0 59630 31500.00000 0 21307089.816 -13805725.741 2348982.942 10 0 59630 32400.00000 0 20842572.412 -13618628.565 5510153.351 10 0 59630 33300.00000 0 20105256.355 -13145962.003 8564176.876 10 0 59630 34200.00000 0 19145664.241 -12362448.554 11451724.872 10 0 59630 35100.00000 0 18020236.363 -11254550.312 14116750.860 10 0 59630 36000.00000 0 16788869.883 -9821280.194 16507576.585 10 0 59630 36900.00000 0 15512335.328 -8074491.358 18577889.010 10 0 59630 37800.00000 0 14249679.592 -6038632.719 20287629.504 10 0 59630 38700.00000 0 13055724.464 -3749980.757 21603758.937 10 0 59630 39600.00000 0 11978765.163 -1255379.732 22500884.988 10 0 59630 40500.00000 0 11058564.370 1389457.513 22961740.876 10 0 59630 41400.00000 0 10324724.510 4122018.018 22977507.567 10 0 59630 42300.00000 0 9795504.993 6875341.277 22547974.359 10 0 59630 43200.00000 0 9477132.461 9580559.446 21681535.657 10 0 59630 44100.00000 0 9363631.630 12169521.218 20395024.547 10 0 59630 45000.00000 0 9437182.771 14577391.980 18713386.554 10 0 59630 45900.00000 0 9668990.210 16745124.035 16669199.688 10 0 59630 46800.00000 0 10020625.088 18621695.845 14302049.477 10 0 59630 47700.00000 0 10445786.114 20166028.547 11657770.343 10 0 59630 48600.00000 0 10892404.575 21348501.143 8787567.023 10 0 59630 49500.00000 0 11305005.530 22152002.075 5747032.046 10 0 59630 50400.00000 0 11627226.217 22572473.757 2595077.433 10 0 59630 51300.00000 0 11804385.861 22618927.583 -607199.477 10 0 59630 52200.00000 0 11785998.611 22312928.773 -3797694.725 10 0 59630 53100.00000 0 11528123.366 21687572.447 -6914498.366 10 0 59630 54000.00000 0 10995450.727 20785993.603 -9897093.964 10 0 59630 54900.00000 0 10163038.005 19659473.222 -12687533.662 10 0 59630 55800.00000 0 9017617.772 18365219.755 -15231565.775 10 0 59630 56700.00000 0 7558423.090 16963918.972 -17479692.780 10 0 59630 57600.00000 0 5797492.687 15517155.004 -19388138.855 10 0 59630 58500.00000 0 3759441.171 14084810.945 -20919707.708 10 0 59630 59400.00000 0 1480701.740 12722558.331 -22044513.708 10 0 59630 60300.00000 0 -991729.029 11479541.123 -22740571.670 10 0 59630 61200.00000 0 -3601993.615 10396351.799 -22994233.340 10 0 59630 62100.00000 0 -6287453.753 9503384.829 -22800461.623 10 0 59630 63000.00000 0 -8981062.862 8819636.999 -22162936.665 10 0 59630 63900.00000 0 -11613932.541 8352005.254 -21093991.135 10 0 59630 64800.00000 0 -14117986.673 8095111.663 -19614375.401 10 0 59630 65700.00000 0 -16428592.632 8031662.820 -17752856.622 10 0 59630 66600.00000 0 -18487059.639 8133328.266 -15545659.183 10 0 59630 67500.00000 0 -20242899.800 8362100.376 -13035757.126 10 0 59630 68400.00000 0 -21655757.045 8672077.487 -10272032.360 10 0 59630 69300.00000 0 -22696923.130 9011593.949 -7308315.415 10 0 59630 70200.00000 0 -23350377.303 9325605.767 -4202328.003 10 0 59630 71100.00000 0 -23613306.517 9558229.510 -1014548.833 10 0 59630 72000.00000 0 -23496085.107 9655325.646 2192974.111 10 0 59630 72900.00000 0 -23021716.023 9567015.582 5357840.553 10 0 59630 73800.00000 0 -22224758.542 9250024.708 8418519.423 10 0 59630 74700.00000 0 -21149789.220 8669751.420 11315550.045 10 0 59630 75600.00000 0 -19849462.434 7801974.025 13992699.078 10 0 59630 76500.00000 0 -18382253.539 6634123.104 16398050.418 10 0 59630 77400.00000 0 -16809980.637 5166065.573 18485007.013 10 0 59630 78300.00000 0 -15195209.692 3410367.454 20213185.705 10 0 59630 79200.00000 0 -13598652.004 1392024.270 21549188.716 10 0 59630 80100.00000 0 -12076662.732 -852329.668 22467237.944 10 0 59630 81000.00000 0 -10678944.303 -3275700.312 22949661.151 10 0 59630 81900.00000 0 -9446549.443 -5822448.499 22987221.952 10 0 59630 82800.00000 0 -8410265.793 -8430369.459 22579288.363 10 0 59630 83700.00000 0 -7589447.927 -11033051.843 21733837.594 10 0 59630 84600.00000 0 -6991343.916 -13562419.617 20467297.530 10 0 59630 85500.00000 0 -6610943.220 -15951352.610 18804228.165 99